When you browse on this site, cookies collect data to enhance your experience and personalize the content and advertising you see.
Visit our Privacy Policy to learn more. By continuing to use the site, you agree to this use of cookies and data.
  • în România
  • Lista ţărilor
  • Pe 7 zile
  • Temperatura apei
  • Hartă satelitară
  • Meteo pe hartă
  • Widget-uri
  • user-avatar
    Intrare

    Meteo pe oră la Korçe

    Astăzi, 18 Ianuarie, Vineri

    Timp Temperatura Precipitaţii Vânt Presiune Umiditate
    00:00 -3°C° 0 mm 2 m/s 665 mmHg 92%
    01:00 -2°C° 0 mm 2 m/s 665 mmHg 96%
    02:00 -2°C° 0 mm 2 m/s 665 mmHg 96%
    03:00 -1°C° 0 mm 2 m/s 665 mmHg 96%
    04:00 -1°C° 0 mm 2 m/s 665 mmHg 96%
    05:00 -1°C° 0 mm 2 m/s 665 mmHg 97%
    06:00 -1°C° 0 mm 2 m/s 665 mmHg 97%
    07:00 -1°C° 0 mm 2 m/s 665 mmHg 97%
    08:00 +1°C° 0.2 mm 2 m/s 665 mmHg 96%
    09:00 +2°C° 0.2 mm 2 m/s 665 mmHg 95%
    10:00 +1°C° 0.2 mm 3 m/s 665 mmHg 94%
    11:00 +1°C° 0.7 mm 3 m/s 665 mmHg 94%
    12:00 +1°C° 0.7 mm 3 m/s 665 mmHg 94%
    13:00 +2°C° 0.7 mm 2 m/s 665 mmHg 94%
    14:00 +2°C° 0.4 mm 2 m/s 665 mmHg 94%
    15:00 +1°C° 0.4 mm 3 m/s 665 mmHg 94%
    16:00 0°C° 0.4 mm 3 m/s 664 mmHg 94%
    17:00 0°C° 0 mm 3 m/s 664 mmHg 94%
    18:00 -1°C° 0 mm 2 m/s 664 mmHg 94%
    19:00 -1°C° 0 mm 2 m/s 664 mmHg 94%
    20:00 -1°C° 0 mm 2 m/s 664 mmHg 94%
    21:00 -1°C° 0 mm 2 m/s 664 mmHg 95%
    22:00 -1°C° 0 mm 2 m/s 664 mmHg 95%
    23:00 -1°C° 0.1 mm 2 m/s 664 mmHg 95%

    Mâine, 19 Ianuarie, Sâmbătă

    Timp Temperatura Precipitaţii Vânt Presiune Umiditate
    00:00 -1°C° 0.1 mm 2 m/s 664 mmHg 96%
    01:00 -1°C° 0.1 mm 2 m/s 664 mmHg 96%
    02:00 -1°C° 0.1 mm 2 m/s 664 mmHg 96%
    03:00 -1°C° 0.1 mm 2 m/s 664 mmHg 96%
    04:00 +1°C° 0.1 mm 2 m/s 664 mmHg 96%
    05:00 -1°C° 0 mm 2 m/s 664 mmHg 95%
    06:00 -1°C° 0 mm 2 m/s 664 mmHg 95%
    07:00 -1°C° 0 mm 2 m/s 664 mmHg 94%
    08:00 +1°C° 0 mm 2 m/s 665 mmHg 92%
    09:00 +2°C° 0 mm 2 m/s 665 mmHg 89%
    10:00 +4°C° 0 mm 2 m/s 666 mmHg 87%
    11:00 +4°C° 0 mm 2 m/s 665 mmHg 86%
    12:00 +4°C° 0 mm 2 m/s 665 mmHg 86%
    13:00 +5°C° 0 mm 2 m/s 665 mmHg 85%
    14:00 +4°C° 0.2 mm 2 m/s 665 mmHg 88%
    15:00 +3°C° 0.2 mm 2 m/s 664 mmHg 91%
    16:00 +3°C° 0.2 mm 2 m/s 664 mmHg 93%
    17:00 +2°C° 0.1 mm 2 m/s 664 mmHg 93%
    18:00 +2°C° 0.1 mm 2 m/s 664 mmHg 93%
    19:00 +1°C° 0.1 mm 2 m/s 664 mmHg 93%
    20:00 +1°C° 0.1 mm 2 m/s 664 mmHg 92%
    21:00 +1°C° 0.1 mm 2 m/s 664 mmHg 92%
    22:00 +1°C° 0.1 mm 2 m/s 664 mmHg 91%
    23:00 +1°C° 0.2 mm 2 m/s 664 mmHg 91%

    Poimâine, 20 Ianuarie, Duminică

    Timp Temperatura Precipitaţii Vânt Presiune Umiditate
    00:00 +1°C° 0.2 mm 2 m/s 664 mmHg 91%
    01:00 +1°C° 0.2 mm 2 m/s 663 mmHg 91%
    02:00 +1°C° 0 mm 2 m/s 663 mmHg 91%
    03:00 -1°C° 0 mm 2 m/s 663 mmHg 92%
    04:00 -1°C° 0 mm 2 m/s 662 mmHg 92%
    05:00 -1°C° 0 mm 2 m/s 662 mmHg 92%
    06:00 -1°C° 0 mm 2 m/s 662 mmHg 92%
    07:00 -2°C° 0 mm 2 m/s 663 mmHg 93%
    08:00 +1°C° 0 mm 2 m/s 663 mmHg 90%
    09:00 +2°C° 0 mm 2 m/s 664 mmHg 88%
    10:00 +4°C° 0 mm 2 m/s 664 mmHg 85%
    11:00 +4°C° 0 mm 2 m/s 664 mmHg 83%
    12:00 +5°C° 0 mm 2 m/s 664 mmHg 82%
    13:00 +5°C° 0 mm 2 m/s 664 mmHg 80%
    14:00 +6°C° 0.2 mm 1 m/s 663 mmHg 82%
    15:00 +5°C° 0.2 mm 1 m/s 663 mmHg 85%
    16:00 +5°C° 0.2 mm 1 m/s 663 mmHg 87%
    17:00 +4°C° 0 mm 1 m/s 663 mmHg 88%
    18:00 +2°C° 0 mm 0 m/s 663 mmHg 90%
    19:00 +1°C° 0 mm 0 m/s 663 mmHg 92%
    20:00 0°C° 0 mm 0 m/s 663 mmHg 91%
    21:00 +1°C° 0 mm 1 m/s 663 mmHg 91%
    22:00 +1°C° 0 mm 1 m/s 663 mmHg 90%
    23:00 0°C° 0 mm 1 m/s 663 mmHg 89%

    21 Ianuarie, Luni

    Timp Temperatura Precipitaţii Vânt Presiune Umiditate
    00:00 0°C° 0 mm 1 m/s 663 mmHg 89%
    01:00 0°C° 0 mm 1 m/s 663 mmHg 88%
    02:00 0°C° 0 mm 1 m/s 663 mmHg 88%
    03:00 0°C° 0 mm 1 m/s 663 mmHg 88%
    04:00 0°C° 0 mm 1 m/s 663 mmHg 88%
    05:00 0°C° 0 mm 1 m/s 663 mmHg 88%
    06:00 0°C° 0 mm 1 m/s 663 mmHg 88%
    07:00 0°C° 0 mm 1 m/s 664 mmHg 88%
    08:00 +1°C° 0 mm 1 m/s 664 mmHg 85%
    09:00 +3°C° 0 mm 1 m/s 665 mmHg 82%
    10:00 +4°C° 0 mm 1 m/s 666 mmHg 80%
    11:00 +5°C° 0 mm 1 m/s 666 mmHg 77%
    12:00 +6°C° 0 mm 1 m/s 666 mmHg 75%
    13:00 +6°C° 0 mm 1 m/s 665 mmHg 73%
    14:00 +5°C° 0 mm 1 m/s 665 mmHg 74%
    15:00 +5°C° 0 mm 1 m/s 665 mmHg 76%
    16:00 +4°C° 0 mm 1 m/s 665 mmHg 78%
    17:00 +4°C° 0 mm 1 m/s 665 mmHg 81%
    18:00 +3°C° 0 mm 1 m/s 665 mmHg 83%
    19:00 +1°C° 0 mm 2 m/s 665 mmHg 86%
    20:00 +1°C° 0 mm 2 m/s 665 mmHg 87%
    21:00 -1°C° 0 mm 2 m/s 665 mmHg 88%
    22:00 -1°C° 0 mm 2 m/s 665 mmHg 89%
    23:00 -1°C° 0 mm 2 m/s 665 mmHg 89%

    22 Ianuarie, Marţi

    Timp Temperatura Precipitaţii Vânt Presiune Umiditate
    00:00 -1°C° 0 mm 2 m/s 665 mmHg 89%
    01:00 -1°C° 0 mm 2 m/s 665 mmHg 90%
    02:00 -1°C° 0 mm 2 m/s 664 mmHg 90%
    03:00 -1°C° 0 mm 2 m/s 664 mmHg 91%
    04:00 -1°C° 0 mm 2 m/s 664 mmHg 91%
    05:00 -1°C° 0.1 mm 2 m/s 664 mmHg 91%
    06:00 -1°C° 0.1 mm 2 m/s 664 mmHg 91%
    07:00 -1°C° 0.1 mm 2 m/s 664 mmHg 91%
    08:00 +1°C° 0 mm 2 m/s 664 mmHg 88%
    09:00 +1°C° 0 mm 3 m/s 664 mmHg 86%
    10:00 +1°C° 0 mm 3 m/s 664 mmHg 84%
    11:00 +1°C° 0.1 mm 3 m/s 663 mmHg 85%
    12:00 +2°C° 0.1 mm 3 m/s 662 mmHg 85%
    13:00 +2°C° 0.1 mm 3 m/s 661 mmHg 86%
    14:00 +1°C° 0.3 mm 3 m/s 661 mmHg 87%
    15:00 +1°C° 0.3 mm 3 m/s 660 mmHg 87%
    16:00 +1°C° 0.3 mm 3 m/s 659 mmHg 88%
    17:00 +1°C° 0.8 mm 3 m/s 659 mmHg 89%
    18:00 +1°C° 0.8 mm 3 m/s 658 mmHg 90%
    19:00 0°C° 0.8 mm 3 m/s 658 mmHg 91%
    20:00 0°C° 1 mm 3 m/s 658 mmHg 91%
    21:00 0°C° 1 mm 3 m/s 657 mmHg 90%
    22:00 0°C° 1 mm 3 m/s 657 mmHg 90%
    23:00 0°C° 0.3 mm 3 m/s 657 mmHg 92%

    23 Ianuarie, Miercuri

    Timp Temperatura Precipitaţii Vânt Presiune Umiditate
    00:00 -1°C° 0.3 mm 4 m/s 656 mmHg 93%
    01:00 0°C° 0.3 mm 4 m/s 656 mmHg 95%
    02:00 0°C° 0.5 mm 4 m/s 655 mmHg 96%
    03:00 0°C° 0.5 mm 4 m/s 655 mmHg 96%
    04:00 0°C° 0.5 mm 4 m/s 655 mmHg 97%
    05:00 -1°C° 0.5 mm 4 m/s 654 mmHg 96%
    06:00 -1°C° 0.5 mm 4 m/s 654 mmHg 95%
    07:00 -1°C° 0.5 mm 4 m/s 654 mmHg 94%
    08:00 -1°C° 0.6 mm 4 m/s 654 mmHg 93%
    09:00 0°C° 0.6 mm 5 m/s 653 mmHg 93%
    10:00 0°C° 0.6 mm 5 m/s 653 mmHg 92%
    11:00 0°C° 1.1 mm 5 m/s 653 mmHg 93%
    12:00 0°C° 1.1 mm 5 m/s 652 mmHg 93%
    13:00 0°C° 1.1 mm 5 m/s 652 mmHg 94%
    14:00 0°C° 0.5 mm 5 m/s 652 mmHg 94%
    15:00 0°C° 0.5 mm 4 m/s 651 mmHg 94%
    16:00 -1°C° 0.5 mm 4 m/s 651 mmHg 94%
    17:00 -1°C° 0.7 mm 4 m/s 651 mmHg 94%
    18:00 -1°C° 0.7 mm 4 m/s 651 mmHg 93%
    19:00 -1°C° 0.7 mm 4 m/s 651 mmHg 93%
    20:00 0°C° 0.4 mm 3 m/s 651 mmHg 94%
    21:00 0°C° 0.4 mm 3 m/s 651 mmHg 94%
    22:00 0°C° 0.4 mm 3 m/s 651 mmHg 95%
    23:00 -1°C° 1.2 mm 3 m/s 651 mmHg 95%
    Arată mai mult